When you browse on this site, cookies collect data to enhance your experience and personalize the content and advertising you see.
Visit our Privacy Policy to learn more. By continuing to use the site, you agree to this use of cookies and data.
  • En España
  • Lista de países
  • Para 7 días
  • Temperatura del agua
  • Mapa Satelital
  • El tiempo en el mapa
  • Informadores
  • user-avatar
    Iniciar sesión

    Tiempo cada hora Djelfa

    Hoy, 15 Diciembre, Sábado

    Tiempo Temperatura Precipitaciones Viento Presión Humedad
    00:00 +2°C° 0 mm 10 mps 665 mmHg 82%
    01:00 +2°C° 0 mm 9 mps 666 mmHg 83%
    02:00 +2°C° 0 mm 9 mps 666 mmHg 84%
    03:00 +1°C° 0 mm 8 mps 666 mmHg 85%
    04:00 +1°C° 0 mm 8 mps 666 mmHg 86%
    05:00 +1°C° 0 mm 8 mps 666 mmHg 88%
    06:00 0°C° 0 mm 8 mps 667 mmHg 89%
    07:00 +1°C° 0 mm 9 mps 667 mmHg 84%
    08:00 +2°C° 0 mm 9 mps 668 mmHg 79%
    09:00 +2°C° 0 mm 9 mps 668 mmHg 75%
    10:00 +4°C° 0 mm 8 mps 668 mmHg 68%
    11:00 +6°C° 0 mm 8 mps 668 mmHg 61%
    12:00 +7°C° 0 mm 8 mps 669 mmHg 54%
    13:00 +7°C° 0 mm 8 mps 668 mmHg 53%
    14:00 +7°C° 0 mm 8 mps 668 mmHg 52%
    15:00 +8°C° 0 mm 7 mps 668 mmHg 50%
    16:00 +6°C° 0 mm 7 mps 668 mmHg 54%
    17:00 +7°C° 0 mm 6 mps 668 mmHg 58%
    18:00 +5°C° 0 mm 6 mps 668 mmHg 61%
    19:00 +6°C° 0 mm 5 mps 668 mmHg 63%
    20:00 +5°C° 0 mm 5 mps 669 mmHg 64%
    21:00 +5°C° 0 mm 4 mps 669 mmHg 65%
    22:00 +5°C° 0 mm 4 mps 669 mmHg 65%
    23:00 +5°C° 0 mm 3 mps 668 mmHg 64%

    Mañana, 16 Diciembre, Domingo

    Tiempo Temperatura Precipitaciones Viento Presión Humedad
    00:00 +5°C° 0 mm 3 mps 668 mmHg 64%
    01:00 +4°C° 0 mm 3 mps 668 mmHg 63%
    02:00 +4°C° 0 mm 3 mps 668 mmHg 62%
    03:00 +4°C° 0 mm 3 mps 668 mmHg 61%
    04:00 +4°C° 0 mm 3 mps 668 mmHg 61%
    05:00 +5°C° 0 mm 3 mps 668 mmHg 61%
    06:00 +5°C° 0 mm 3 mps 668 mmHg 61%
    07:00 +7°C° 0 mm 3 mps 668 mmHg 57%
    08:00 +8°C° 0 mm 3 mps 669 mmHg 54%
    09:00 +10°C° 0 mm 3 mps 669 mmHg 50%
    10:00 +11°C° 0 mm 3 mps 670 mmHg 47%
    11:00 +13°C° 0 mm 3 mps 670 mmHg 44%
    12:00 +16°C° 0 mm 3 mps 670 mmHg 41%
    13:00 +16°C° 0 mm 3 mps 670 mmHg 40%
    14:00 +17°C° 0 mm 4 mps 669 mmHg 39%
    15:00 +17°C° 0 mm 4 mps 669 mmHg 37%
    16:00 +14°C° 0 mm 3 mps 669 mmHg 41%
    17:00 +13°C° 0 mm 3 mps 669 mmHg 45%
    18:00 +12°C° 0 mm 2 mps 669 mmHg 49%
    19:00 +12°C° 0 mm 2 mps 669 mmHg 49%
    20:00 +10°C° 0 mm 3 mps 669 mmHg 49%
    21:00 +10°C° 0 mm 3 mps 670 mmHg 50%
    22:00 +10°C° 0 mm 3 mps 669 mmHg 51%
    23:00 +9°C° 0 mm 3 mps 669 mmHg 52%

    Pasado mañana, 17 Diciembre, Lunes

    Tiempo Temperatura Precipitaciones Viento Presión Humedad
    00:00 +9°C° 0 mm 3 mps 669 mmHg 53%
    01:00 +9°C° 0 mm 3 mps 669 mmHg 54%
    02:00 +7°C° 0 mm 4 mps 669 mmHg 55%
    03:00 +7°C° 0 mm 4 mps 668 mmHg 56%
    04:00 +7°C° 0 mm 4 mps 668 mmHg 57%
    05:00 +7°C° 0 mm 5 mps 668 mmHg 58%
    06:00 +7°C° 0 mm 5 mps 668 mmHg 59%
    07:00 +7°C° 0 mm 5 mps 669 mmHg 60%
    08:00 +8°C° 0 mm 6 mps 669 mmHg 60%
    09:00 +9°C° 0 mm 7 mps 670 mmHg 60%
    10:00 +10°C° 0 mm 7 mps 670 mmHg 60%
    11:00 +11°C° 0 mm 7 mps 670 mmHg 61%
    12:00 +12°C° 0 mm 8 mps 670 mmHg 61%
    13:00 +12°C° 0 mm 8 mps 670 mmHg 61%
    14:00 +12°C° 0 mm 8 mps 670 mmHg 61%
    15:00 +12°C° 0 mm 7 mps 670 mmHg 61%
    16:00 +11°C° 0 mm 6 mps 670 mmHg 66%
    17:00 +9°C° 0 mm 6 mps 670 mmHg 72%
    18:00 +8°C° 0 mm 5 mps 670 mmHg 78%
    19:00 +8°C° 0 mm 4 mps 670 mmHg 81%
    20:00 +8°C° 0 mm 3 mps 670 mmHg 84%
    21:00 +7°C° 0 mm 3 mps 670 mmHg 87%
    22:00 +7°C° 0 mm 2 mps 670 mmHg 88%
    23:00 +6°C° 0 mm 2 mps 670 mmHg 89%

    18 Diciembre, Martes

    Tiempo Temperatura Precipitaciones Viento Presión Humedad
    00:00 +7°C° 0 mm 1 mps 670 mmHg 90%
    01:00 +6°C° 0 mm 1 mps 670 mmHg 90%
    02:00 +6°C° 0 mm 1 mps 669 mmHg 90%
    03:00 +6°C° 0 mm 1 mps 669 mmHg 89%
    04:00 +5°C° 0 mm 1 mps 669 mmHg 88%
    05:00 +5°C° 0 mm 1 mps 669 mmHg 87%
    06:00 +5°C° 0 mm 1 mps 669 mmHg 86%
    07:00 +6°C° 0 mm 1 mps 670 mmHg 75%
    08:00 +8°C° 0 mm 1 mps 671 mmHg 65%
    09:00 +10°C° 0 mm 1 mps 672 mmHg 55%
    10:00 +11°C° 0 mm 1 mps 672 mmHg 49%
    11:00 +13°C° 0 mm 2 mps 671 mmHg 42%
    12:00 +13°C° 0 mm 3 mps 671 mmHg 35%
    13:00 +13°C° 0 mm 3 mps 671 mmHg 35%
    14:00 +14°C° 0 mm 3 mps 671 mmHg 34%
    15:00 +14°C° 0 mm 3 mps 671 mmHg 34%
    16:00 +14°C° 0 mm 2 mps 670 mmHg 39%
    17:00 +12°C° 0 mm 2 mps 670 mmHg 44%
    18:00 +9°C° 0 mm 2 mps 670 mmHg 50%
    19:00 +9°C° 0 mm 2 mps 670 mmHg 52%
    20:00 +9°C° 0 mm 2 mps 670 mmHg 54%
    21:00 +8°C° 0 mm 2 mps 671 mmHg 57%
    22:00 +8°C° 0 mm 2 mps 670 mmHg 59%
    23:00 +7°C° 0 mm 2 mps 670 mmHg 61%

    19 Diciembre, Miércoles

    Tiempo Temperatura Precipitaciones Viento Presión Humedad
    00:00 +7°C° 0 mm 2 mps 670 mmHg 63%
    01:00 +7°C° 0 mm 2 mps 670 mmHg 64%
    02:00 +7°C° 0 mm 2 mps 670 mmHg 66%
    03:00 +6°C° 0 mm 2 mps 669 mmHg 67%
    04:00 +6°C° 0 mm 2 mps 669 mmHg 69%
    05:00 +6°C° 0 mm 2 mps 669 mmHg 70%
    06:00 +6°C° 0 mm 2 mps 669 mmHg 71%
    07:00 +7°C° 0 mm 2 mps 670 mmHg 64%
    08:00 +9°C° 0 mm 2 mps 670 mmHg 58%
    09:00 +10°C° 0 mm 2 mps 671 mmHg 51%
    10:00 +11°C° 0 mm 3 mps 671 mmHg 46%
    11:00 +13°C° 0 mm 3 mps 671 mmHg 40%
    12:00 +14°C° 0 mm 3 mps 671 mmHg 35%
    13:00 +14°C° 0 mm 3 mps 670 mmHg 34%
    14:00 +16°C° 0 mm 3 mps 670 mmHg 33%
    15:00 +16°C° 0 mm 3 mps 669 mmHg 32%
    16:00 +13°C° 0 mm 3 mps 669 mmHg 37%
    17:00 +13°C° 0 mm 2 mps 669 mmHg 42%
    18:00 +10°C° 0 mm 2 mps 669 mmHg 47%
    19:00 +10°C° 0 mm 2 mps 669 mmHg 48%
    20:00 +9°C° 0 mm 2 mps 669 mmHg 49%
    21:00 +9°C° 0 mm 2 mps 669 mmHg 51%
    22:00 +8°C° 0 mm 2 mps 668 mmHg 51%
    23:00 +8°C° 0 mm 2 mps 668 mmHg 52%

    20 Diciembre, Jueves

    Tiempo Temperatura Precipitaciones Viento Presión Humedad
    00:00 +8°C° 0 mm 2 mps 668 mmHg 53%
    01:00 +7°C° 0 mm 2 mps 668 mmHg 54%
    02:00 +7°C° 0 mm 2 mps 667 mmHg 55%
    03:00 +6°C° 0 mm 2 mps 667 mmHg 56%
    04:00 +6°C° 0 mm 2 mps 667 mmHg 55%
    05:00 +6°C° 0 mm 2 mps 667 mmHg 55%
    06:00 +6°C° 0 mm 2 mps 667 mmHg 55%
    07:00 +7°C° 0 mm 2 mps 668 mmHg 50%
    08:00 +9°C° 0 mm 2 mps 668 mmHg 46%
    09:00 +10°C° 0 mm 2 mps 669 mmHg 41%
    10:00 +13°C° 0 mm 2 mps 669 mmHg 38%
    11:00 +14°C° 0 mm 2 mps 669 mmHg 34%
    12:00 +14°C° 0 mm 3 mps 669 mmHg 31%
    13:00 +15°C° 0 mm 2 mps 669 mmHg 30%
    14:00 +15°C° 0 mm 2 mps 668 mmHg 30%
    15:00 +15°C° 0 mm 2 mps 668 mmHg 29%
    16:00 +14°C° 0 mm 2 mps 668 mmHg 33%
    17:00 +13°C° 0 mm 1 mps 668 mmHg 37%
    18:00 +11°C° 0 mm 1 mps 668 mmHg 41%
    19:00 +11°C° 0 mm 1 mps 668 mmHg 42%
    20:00 +11°C° 0 mm 1 mps 668 mmHg 42%
    21:00 +9°C° 0 mm 2 mps 668 mmHg 42%
    22:00 +9°C° 0 mm 2 mps 668 mmHg 44%
    23:00 +9°C° 0 mm 2 mps 668 mmHg 46%
    Mostrar más